Dubuque, IA

7:59 AM CDT on September 18, 2019 (GMT -0500)
Dubuque Regional

Weather History for KDBQ - August, 2019

Change the Weather History Date:

Friday, August 23, 2019

  Actual Average Record
Temperature  
Mean Temperature 64 °F 69 °F  
Max Temperature 75 °F 79 °F 97 °F (1948)
Min Temperature 54 °F 60 °F 44 °F (1875)
Degree Days  
Heating Degree Days 0 1  
Month to date heating degree days 0 8  
Since 1 June heating degree days 29 56  
Since 1 July heating degree days 0 16  
Cooling Degree Days 0 5  
Month to date cooling degree days 116 140  
Year to date cooling degree days 569 540  
Since 1 June cooling degree days 543 503  
Growing Degree Days 14 (Base 50)    
Moisture  
Dew Point 56 °F    
Average Humidity 76    
Maximum Humidity 100    
Minimum Humidity 57    
Precipitation  
Precipitation 0.00 in 0.14 in 2.80 in (1928)
Month to date precipitation 4.88 3.33  
Year to date precipitation 30.99 24.91  
Snow  
Snow 0.00 in 0.00 in - ()
Month to date snowfall 0.0 0.0  
Since 1 June snowfall 0.0 0.0  
Since 1 July snowfall 0.0 0.0  
Snow Depth 0.00 in    
Sea Level Pressure  
Sea Level Pressure 30.19 in    
Wind  
Wind Speed 5 mph ()    
Max Wind Speed 14 mph    
Max Gust Speed 18 mph    
Visibility 9.8 miles    
Events      
T = Trace of Precipitation, MM = Missing Value Source: Averaged Metar Reports

Daily Weather History Graph

Daily Weather History Graph

Search for Another Location

Airport or City:

Astronomy

Aug. 23, 2019 Rise Set
Actual Time 6:18 AM CDT 7:51 PM CDT
Civil Twilight 5:48 AM CDT 8:21 PM CDT
Nautical Twilight 5:12 AM CDT 8:57 PM CDT
Astronomical Twilight 4:34 AM CDT 9:35 PM CDT
Moon No Moon Rise 2:04 PM CDT (8/23)
Length of Visible Light 14h 32m
Length of Day
13h 33m
Waning Gibbous, 49% of the Moon is Illuminated
Aug 23
Waning Gibbous
Aug 30
New
Sep 5
First Quarter
Sep 13
Full
Sep 21
Last Quarter

Hourly Weather History & Observations

Time (CDT) Temp. Dew Point Humidity Pressure Visibility Wind Dir Wind Speed Gust Speed Precip Events Conditions
12:53 AM 59.0 °F 55.9 °F 90% 30.13 in 10.0 mi Calm Calm - N/A   Clear
1:53 AM 60.1 °F 55.0 °F 83% 30.14 in 10.0 mi ESE 6.9 mph - N/A   Clear
2:53 AM 57.9 °F 54.0 °F 87% 30.14 in 10.0 mi Variable 3.5 mph - N/A   Clear
3:53 AM 57.0 °F 54.0 °F 89% 30.14 in 10.0 mi Calm Calm - N/A   Clear
4:53 AM 55.0 °F 55.0 °F 100% 30.14 in 10.0 mi NNE 8.1 mph - N/A   Clear
5:53 AM 54.0 °F 54.0 °F 100% 30.15 in 10.0 mi NE 5.8 mph - N/A   Clear
6:53 AM 55.0 °F 54.0 °F 96% 30.18 in 5.0 mi NNE 5.8 mph - N/A   Clear
7:53 AM 59.0 °F 57.0 °F 93% 30.20 in 10.0 mi NE 5.8 mph - N/A   Clear
8:53 AM 64.0 °F 57.9 °F 80% 30.22 in 10.0 mi Variable 5.8 mph - N/A   Clear
9:53 AM 66.9 °F 57.9 °F 73% 30.22 in 10.0 mi East 11.5 mph - N/A   Clear
10:53 AM 69.1 °F 57.0 °F 65% 30.23 in 10.0 mi ESE 10.4 mph - N/A   Clear
11:53 AM 70.0 °F 57.0 °F 63% 30.22 in 10.0 mi ESE 6.9 mph - N/A   Clear
12:53 PM 73.0 °F 57.0 °F 57% 30.22 in 10.0 mi East 9.2 mph - N/A   Clear
1:53 PM 73.0 °F 57.0 °F 57% 30.22 in 10.0 mi East 4.6 mph - N/A   Mostly Cloudy
2:53 PM 72.0 °F 57.9 °F 61% 30.21 in 10.0 mi East 9.2 mph - N/A   Mostly Cloudy
3:53 PM 73.9 °F 59.0 °F 59% 30.19 in 10.0 mi East 11.5 mph - N/A   Mostly Cloudy
4:53 PM 73.9 °F 59.0 °F 59% 30.19 in 10.0 mi NE 8.1 mph - N/A   Clear
5:53 PM 72.0 °F 57.0 °F 59% 30.19 in 10.0 mi ENE 13.8 mph - N/A   Clear
6:53 PM 71.1 °F 57.9 °F 63% 30.20 in 10.0 mi East 8.1 mph - N/A   Clear
7:53 PM 66.0 °F 57.0 °F 73% 30.20 in 10.0 mi ENE 8.1 mph - N/A   Clear
8:53 PM 64.0 °F 55.9 °F 75% 30.22 in 10.0 mi ENE 6.9 mph - N/A   Clear
9:53 PM 62.1 °F 55.9 °F 80% 30.23 in 10.0 mi East 5.8 mph - N/A   Clear
10:53 PM 61.0 °F 55.9 °F 83% 30.24 in 10.0 mi ENE 4.6 mph - N/A   Clear
11:53 PM 61.0 °F 55.9 °F 83% 30.25 in 10.0 mi East 6.9 mph - N/A   Clear